Probability
0 0 0 0 0 0 0 0 0 0 0 0 0 13 13 19 19 19 23 29 35 39 42 42 45 39 39 39 32 32 32 35 39 35 32 29 32 35 35 32 26 29 29 26
0 0 0 0 0 0 0 0 0 0 0 0 6 10 13 23 26 29 29 32 39 39 39 42 42 39 39 35 32 29 29 35 35 32 26 29 32 35 35 26 26 26 26 26
0 0 0 0 0 0 0 0 0 0 0 3 6 13 16 19 23 29 35 35 35 42 39 35 39 42 39 35 32 32 29 26 23 23 26 35 26 29 32 29 29 29 26 26
0 0 0 0 0 0 0 0 0 0 0 6 10 13 16 16 23 32 35 32 35 39 39 35 39 39 39 29 29 29 26 19 16 13 19 29 29 29 26 23 23 23 23 23
0 0 0 0 0 0 0 0 0 0 3 3 3 10 13 13 19 26 32 39 32 35 39 35 35 39 32 29 29 26 23 16 13 19 23 19 19 19 23 23 26 23 19 23
0 0 0 0 0 0 0 0 0 0 0 3 6 6 10 13 23 23 29 32 35 35 29 32 32 35 29 26 26 23 23 19 13 13 13 10 19 16 16 19 23 16 16 16
0 0 0 0 0 0 0 0 0 3 10 6 6 6 16 19 23 29 26 26 26 32 29 32 32 29 32 29 29 26 23 23 19 13 10 10 13 16 16 16 13 16 23 16
0 0 0 0 0 0 0 6 6 6 16 19 23 23 16 29 26 29 26 23 23 29 32 32 29 29 35 26 26 26 23 23 13 13 6 10 16 16 16 16 13 10 10 10
0 0 6 3 6 6 6 6 6 10 13 13 16 19 19 26 26 29 23 23 19 26 29 29 19 23 29 19 23 23 23 19 13 13 10 10 13 16 16 16 10 10 10 10
0 3 3 3 3 6 3 3 6 6 10 10 16 16 16 29 29 26 19 26 19 26 23 23 19 19 23 23 19 23 23 19 13 10 10 10 16 6 6 6 10 10 10 10
0 3 3 3 6 3 3 3 6 6 6 10 13 16 23 29 23 23 19 23 23 19 23 23 19 16 19 19 19 19 19 19 13 10 10 10 10 10 6 6 6 10 10 10
3 3 3 3 3 3 3 6 6 3 6 13 16 19 16 19 19 19 19 23 19 19 19 23 23 16 16 16 19 19 16 13 10 13 10 10 10 6 6 6 6 3 6 6
3 3 3 3 3 3 6 6 6 6 10 13 13 13 16 16 13 13 16 16 13 13 16 19 19 13 13 16 19 16 16 13 10 10 6 6 6 6 6 0 0 0 0 0
3 3 3 3 6 10 10 6 6 6 10 10 10 13 13 16 13 13 16 10 13 13 13 16 16 16 13 16 16 16 16 10 10 10 3 3 6 6 6 3 0 0 0 0
3 3 3 3 3 6 6 6 6 6 10 10 10 10 10 13 13 13 10 6 3 10 10 10 10 10 6 13 13 16 16 13 10 3 3 3 3 3 3 3 3 0 0 0
3 3 3 3 6 3 6 6 10 6 6 10 10 10 10 6 6 10 10 10 6 6 10 10 13 13 10 10 13 13 16 6 6 10 3 3 3 3 6 6 3 0 0 0
3 3 3 3 3 3 3 3 3 3 0 0 3 6 6 10 10 6 6 10 6 10 10 13 13 13 13 10 10 10 10 6 3 6 6 10 6 6 6 6 3 0 0 0
0 0 0 3 3 3 3 3 3 0 0 0 0 3 3 3 6 3 3 6 6 10 13 13 13 13 13 10 10 6 6 6 10 10 6 13 10 10 6 3 3 0 0 0
0 0 0 0 0 0 3 3 3 0 0 0 3 3 3 3 6 3 3 3 3 3 3 6 0 10 10 10 6 10 3 3 10 6 10 3 6 6 6 6 6 0 0 0
0 0 0 0 0 0 0 3 3 3 0 0 0 3 3 3 3 3 3 3 3 3 3 3 3 6 6 3 0 0 3 3 3 6 6 3 3 3 3 6 3 3 3 3
0 0 0 0 0 0 0 0 0 0 0 0 0 0 3 3 3 3 3 3 3 3 3 0 6 6 3 3 0 3 3 0 3 3 3 3 0 0 0 0 0 0 0 0
0 0 0 0 0 0 0 0 0 0 0 0 0 0 3 3 3 3 3 3 3 0 0 0 0 0 0 0 6 3 0 0 0 0 0 0 0 0 0 0 0 0 0 0
0 0 0 0 0 0 0 0 0 0 0 0 0 0 0 3 3 3 3 3 3 0 0 0 0 0 0 0 0 0 0 0 0 0 0 0 0 0 0 0 0 0 0 0
0 0 0 0 0 0 0 0 0 0 0 0 0 0 0 0 3 3 3 0 0 0 0 0 0 0 0 0 0 0 0 0 0 0 0 0 0 0 0 0 0 0 0 0
0 0 0 0 0 0 0 0 0 0 0 0 0 0 0 0 0 0 0 0 0 0 0 0 0 0 0 0 0 0 0 0 0 0 0 0 0 0 0 0 0 0 0 3
0 0 0 0 0 0 0 0 0 0 0 0 0 0 0 0 0 0 0 0 0 0 0 0 0 0 0 0 0 0 0 0 0 0 0 0 0 0 0 0 0 0 0 0
0 0 3 0 0 0 0 0 0 0 0 0 0 0 0 0 0 0 0 0 0 0 0 0 0 0 0 0 0 0 0 0 0 0 0 0 0 0 0 0 0 0 0 0
Height
5778 5780 5781 5783 5785 5787 5789 5792 5794 5797 5797 5799 5800 5801 5802 5804 5805 5807 5809 5810 5811 5812 5813 5814 5815 5816 5816 5817 5817 5817 5818 5818 5818 5818 5818 5818 5817 5817 5816 5816 5815 5815 5815 5814
5770 5772 5774 5776 5778 5780 5782 5784 5786 5789 5791 5792 5792 5794 5796 5797 5799 5801 5802 5803 5804 5805 5806 5808 5809 5809 5810 5811 5811 5812 5812 5812 5812 5812 5812 5812 5812 5812 5811 5810 5810 5809 5809 5809
5764 5765 5766 5768 5771 5773 5775 5777 5779 5781 5784 5785 5786 5787 5789 5791 5792 5794 5795 5797 5798 5799 5800 5801 5802 5803 5804 5805 5806 5806 5806 5806 5807 5807 5807 5807 5806 5806 5806 5805 5804 5804 5803 5802
5757 5759 5760 5764 5764 5766 5768 5770 5772 5774 5776 5778 5779 5780 5782 5784 5785 5787 5788 5790 5791 5792 5793 5794 5795 5797 5798 5799 5799 5800 5800 5800 5800 5800 5800 5800 5800 5800 5800 5799 5798 5798 5797 5796
5750 5751 5753 5756 5757 5759 5761 5763 5765 5767 5768 5770 5772 5774 5775 5777 5778 5780 5781 5782 5784 5785 5786 5788 5789 5790 5791 5792 5792 5793 5793 5794 5793 5794 5793 5793 5793 5793 5793 5792 5791 5791 5790 5789
5743 5745 5747 5750 5751 5752 5755 5756 5758 5760 5761 5763 5765 5767 5769 5770 5772 5773 5774 5776 5777 5778 5779 5780 5781 5783 5784 5785 5785 5786 5787 5787 5787 5787 5787 5787 5786 5786 5785 5785 5784 5784 5783 5782
5736 5738 5740 5742 5744 5746 5749 5750 5751 5752 5754 5756 5758 5760 5762 5763 5764 5766 5767 5768 5770 5771 5772 5773 5774 5775 5776 5777 5778 5778 5779 5779 5779 5779 5779 5779 5779 5778 5777 5777 5777 5776 5776 5775
5730 5732 5735 5735 5737 5739 5741 5742 5744 5745 5747 5749 5751 5752 5754 5755 5757 5758 5760 5761 5762 5764 5765 5766 5767 5768 5769 5770 5770 5771 5771 5771 5772 5772 5772 5771 5771 5770 5770 5769 5769 5768 5768 5767
5724 5727 5727 5728 5729 5731 5733 5735 5736 5738 5740 5742 5744 5745 5747 5748 5750 5751 5753 5754 5755 5756 5757 5758 5759 5760 5761 5762 5762 5763 5763 5763 5764 5764 5763 5763 5763 5762 5761 5761 5760 5760 5759 5759
5717 5719 5720 5721 5722 5724 5726 5727 5729 5731 5732 5734 5736 5738 5739 5740 5742 5743 5745 5746 5747 5748 5750 5750 5751 5752 5753 5753 5754 5755 5755 5755 5755 5755 5755 5755 5754 5753 5753 5753 5752 5751 5751 5750
5711 5712 5713 5714 5716 5718 5719 5720 5722 5723 5725 5726 5728 5730 5731 5732 5734 5735 5737 5738 5739 5740 5741 5742 5743 5744 5744 5745 5746 5746 5747 5747 5747 5747 5747 5747 5746 5746 5745 5744 5744 5743 5743 5742
5705 5706 5707 5709 5710 5711 5712 5713 5715 5716 5717 5718 5720 5721 5723 5724 5726 5727 5728 5730 5731 5732 5732 5733 5734 5735 5735 5736 5737 5737 5738 5738 5738 5738 5738 5738 5738 5737 5736 5736 5735 5734 5733 5733
5698 5699 5700 5702 5703 5704 5705 5706 5707 5709 5710 5711 5712 5713 5715 5716 5718 5719 5720 5721 5722 5723 5723 5724 5725 5726 5726 5727 5728 5729 5729 5729 5729 5729 5730 5729 5729 5728 5727 5726 5725 5725 5724 5724
5692 5693 5694 5695 5696 5697 5698 5699 5700 5701 5702 5704 5705 5706 5706 5708 5709 5710 5711 5712 5713 5714 5714 5715 5716 5716 5717 5718 5719 5719 5719 5720 5720 5720 5720 5720 5720 5719 5717 5716 5716 5715 5715 5714
5686 5686 5687 5688 5690 5691 5691 5692 5693 5694 5695 5696 5697 5698 5698 5699 5700 5701 5702 5703 5704 5705 5705 5706 5706 5707 5708 5709 5709 5710 5710 5710 5711 5711 5711 5711 5710 5709 5708 5707 5707 5706 5706 5705
5680 5680 5681 5682 5683 5684 5685 5686 5687 5687 5688 5689 5689 5690 5691 5691 5692 5693 5694 5694 5695 5696 5696 5697 5697 5698 5699 5699 5699 5700 5700 5701 5701 5701 5701 5701 5701 5700 5699 5698 5698 5697 5697 5696
5674 5674 5675 5676 5677 5677 5678 5679 5680 5681 5681 5682 5682 5683 5683 5684 5684 5685 5685 5686 5686 5687 5688 5688 5689 5689 5690 5690 5690 5691 5691 5692 5692 5692 5692 5691 5691 5690 5689 5689 5688 5687 5688 5687
5668 5669 5669 5670 5670 5671 5672 5673 5673 5674 5674 5675 5675 5675 5675 5676 5676 5677 5677 5678 5679 5679 5680 5680 5680 5681 5681 5681 5681 5682 5682 5682 5683 5683 5682 5682 5681 5681 5681 5680 5679 5678 5678 5678
5662 5663 5663 5663 5664 5664 5665 5666 5666 5667 5667 5668 5668 5668 5668 5669 5669 5669 5670 5670 5671 5672 5672 5672 5672 5672 5673 5673 5673 5673 5673 5673 5673 5673 5673 5673 5672 5672 5672 5671 5670 5670 5669 5669
5657 5657 5657 5657 5658 5658 5659 5659 5660 5661 5661 5661 5661 5661 5661 5662 5662 5662 5663 5663 5664 5664 5664 5664 5664 5664 5665 5665 5665 5665 5665 5665 5665 5665 5664 5664 5664 5663 5663 5662 5662 5662 5661 5661
5651 5651 5651 5651 5651 5652 5653 5653 5654 5655 5655 5655 5655 5655 5655 5655 5655 5655 5655 5656 5656 5656 5656 5657 5657 5657 5657 5657 5657 5657 5657 5657 5656 5656 5656 5656 5655 5655 5655 5654 5654 5654 5654 5654
5646 5645 5645 5645 5646 5646 5647 5648 5648 5648 5649 5649 5649 5649 5649 5648 5648 5649 5649 5649 5649 5649 5649 5650 5650 5650 5650 5650 5650 5649 5649 5649 5648 5648 5648 5648 5647 5647 5647 5647 5647 5647 5647 5646
5640 5640 5640 5640 5641 5641 5642 5642 5642 5643 5643 5643 5643 5643 5642 5642 5642 5642 5643 5643 5642 5642 5643 5643 5643 5643 5643 5643 5642 5642 5642 5642 5641 5641 5641 5641 5640 5640 5640 5640 5640 5640 5639 5639
5636 5636 5636 5636 5636 5637 5637 5637 5638 5637 5637 5637 5637 5637 5636 5636 5636 5636 5636 5636 5636 5636 5636 5636 5636 5636 5636 5636 5635 5635 5635 5635 5634 5634 5634 5634 5634 5633 5633 5633 5633 5632 5632 5632
5632 5632 5632 5632 5632 5633 5633 5633 5633 5633 5632 5632 5632 5631 5630 5630 5630 5630 5630 5630 5630 5629 5630 5629 5629 5629 5629 5629 5628 5628 5628 5628 5628 5627 5627 5627 5627 5626 5626 5626 5626 5625 5625 5624
5628 5629 5629 5629 5629 5629 5629 5629 5629 5628 5628 5627 5626 5626 5625 5625 5625 5624 5624 5624 5623 5623 5623 5623 5623 5622 5622 5622 5622 5622 5621 5621 5621 5621 5620 5620 5620 5620 5620 5619 5619 5618 5618 5617
5625 5625 5625 5625 5626 5625 5625 5625 5625 5624 5624 5623 5622 5621 5621 5620 5620 5619 5619 5618 5618 5617 5617 5617 5616 5616 5616 5616 5616 5615 5615 5615 5614 5614 5614 5614 5613 5613 5613 5613 5612 5612 5611 5610
Wind_Speed
26 26 26 27 27 27 28 27 27 25 25 25 24 24 23 23 24 23 23 23 23 23 23 23 23 23 23 23 22 22 21 20 20 20 19 20 19 19 20 20 20 20 21 21
26 27 27 27 28 27 27 27 27 26 26 26 25 23 23 23 23 23 23 23 24 24 23 24 24 24 24 23 22 22 22 21 21 21 21 21 21 21 20 20 20 20 21 22
26 25 27 27 26 26 26 26 27 27 25 24 23 23 22 22 22 22 23 23 23 24 24 24 24 24 24 23 23 23 23 23 22 22 22 22 22 22 21 21 21 21 21 22
25 25 26 26 26 25 26 25 26 26 26 26 25 23 22 22 22 22 22 22 23 23 24 25 25 25 25 25 25 25 24 23 23 23 23 23 23 23 22 22 22 22 23 23
25 25 26 25 25 25 25 25 25 25 24 24 23 23 22 22 22 22 22 23 23 23 24 25 26 26 26 26 25 25 25 25 25 24 24 24 23 23 23 23 23 23 23 23
24 24 25 25 24 24 24 24 23 23 23 23 22 23 23 23 23 23 23 23 23 24 24 25 26 27 27 26 26 26 26 26 26 26 26 25 25 24 24 24 25 25 25 24
23 24 24 24 24 23 24 24 23 23 23 23 24 23 23 24 24 24 24 23 24 24 24 25 25 26 26 27 27 26 27 26 26 27 26 26 26 26 25 26 26 25 25 25
21 22 24 24 23 24 24 24 24 24 24 25 24 24 25 24 24 24 24 24 24 24 23 24 25 25 26 27 27 27 27 27 27 27 27 28 28 27 27 27 27 26 26 26
22 22 23 23 23 23 23 23 24 24 24 25 26 25 25 25 25 25 25 24 24 24 24 25 26 26 26 26 27 27 28 28 28 28 28 28 28 28 27 27 26 26 26 26
21 21 22 22 22 22 22 23 24 24 25 25 26 26 26 26 26 25 25 25 25 25 25 26 27 27 27 27 27 28 28 29 29 28 28 28 28 27 28 28 27 26 26 26
19 20 22 22 22 22 21 22 23 23 23 24 25 25 26 27 27 26 26 26 26 26 27 28 28 28 29 28 28 28 28 29 29 29 28 28 28 28 28 27 27 27 26 27
19 20 21 21 21 22 22 22 22 23 23 25 25 26 26 26 27 27 26 26 27 27 28 28 28 28 29 29 29 29 29 29 29 29 29 29 29 29 28 28 29 29 28 28
20 20 20 20 20 21 21 21 21 22 23 23 24 25 26 26 27 28 28 28 28 28 28 29 29 29 30 30 30 30 30 30 30 30 30 30 30 30 29 29 30 29 28 28
19 19 20 20 20 20 21 22 22 22 23 24 25 25 25 25 26 27 28 28 29 28 29 29 30 30 30 31 31 30 30 31 31 31 30 30 30 30 30 29 29 28 28 28
18 19 20 20 20 21 21 21 22 23 24 24 24 24 24 24 25 27 28 28 29 29 29 29 30 30 30 31 31 31 30 31 31 31 30 31 31 31 30 29 29 28 29 29
18 19 20 20 20 20 21 21 21 22 23 23 24 24 24 25 25 26 26 27 27 28 28 28 29 29 30 30 30 30 29 30 30 30 30 30 31 31 29 29 29 29 29 28
18 18 19 20 20 21 21 21 21 21 22 23 22 23 24 24 25 25 26 26 26 26 26 27 27 28 28 29 29 30 30 29 30 30 31 31 31 30 29 29 29 29 29 29
18 18 18 18 19 20 20 21 21 21 22 22 23 22 23 23 25 26 26 26 26 26 26 26 26 26 27 27 27 28 29 29 29 30 30 30 30 29 28 28 29 29 28 28
17 17 18 18 18 19 20 20 20 21 21 21 22 22 22 23 23 25 25 25 25 25 25 26 25 25 25 25 25 26 27 27 28 28 29 28 28 27 27 27 27 27 26 27
16 17 17 17 18 18 18 18 19 20 19 20 20 21 21 21 22 22 23 24 24 24 24 24 24 23 23 24 24 24 24 25 25 26 26 26 26 26 25 25 25 25 24 24
15 16 16 16 16 17 17 17 18 18 18 19 19 19 19 20 20 21 22 23 24 24 23 23 23 23 23 24 24 23 23 23 24 24 25 25 25 25 25 24 23 23 23 24
15 16 16 16 15 15 16 17 17 17 17 18 18 18 19 20 21 21 22 22 22 22 22 22 23 23 23 23 23 23 22 22 22 23 23 24 24 25 25 24 24 24 24 24
14 14 14 14 15 14 15 15 15 16 16 17 18 18 19 19 19 20 21 21 21 21 22 21 22 22 22 23 23 22 22 21 22 21 22 22 23 23 23 23 24 24 24 24
12 12 13 13 14 13 13 14 14 15 16 17 17 17 17 18 18 18 18 18 19 20 20 21 21 21 21 22 22 22 21 22 22 22 22 21 21 21 22 22 23 23 23 23
12 12 12 12 12 12 12 12 14 14 15 16 16 15 16 16 17 17 17 17 17 18 19 19 20 20 21 21 20 20 20 21 21 20 20 20 20 20 20 21 21 22 23 23
11 11 12 12 12 12 12 12 13 13 13 14 14 14 14 15 15 16 16 16 17 17 17 18 18 19 19 19 19 19 19 20 20 20 20 20 20 20 20 20 21 21 22 23
10 10 10 10 10 11 11 12 12 13 13 12 13 13 13 14 14 15 15 16 17 17 17 18 18 18 18 18 18 18 18 19 19 19 19 20 20 20 20 21 22 22 22 22
Wind_Direction
242 242 245 246 246 248 247 247 248 249 252 255 256 254 251 249 248 247 247 249 249 249 249 250 251 253 256 258 261 261 260 262 266 268 269 268 268 272 274 275 274 271 269 269
245 244 244 245 246 249 250 249 250 250 251 254 256 252 248 247 248 248 248 248 249 249 249 250 252 254 256 256 259 261 262 264 264 265 267 267 269 272 273 274 275 273 271 270
247 247 246 246 246 248 249 249 248 248 250 252 253 252 248 248 248 250 250 248 248 249 250 252 251 252 254 255 258 261 264 265 266 266 266 267 269 271 273 274 274 273 274 271
248 248 249 248 248 247 247 247 247 248 249 251 253 254 251 250 250 250 250 250 249 249 249 249 250 252 254 255 259 261 264 266 267 267 267 266 268 270 273 273 273 273 276 275
247 248 250 250 249 248 248 248 246 246 247 249 250 250 250 249 250 251 251 251 251 249 248 249 250 253 255 257 259 260 263 266 267 267 269 268 269 270 272 272 272 272 275 279
246 247 249 250 250 249 248 248 246 244 244 245 246 247 247 247 249 250 251 252 251 250 250 250 251 252 255 258 259 261 264 266 267 267 267 267 267 269 271 272 272 272 273 275
246 247 250 250 251 251 250 249 246 245 244 244 245 246 247 248 250 250 250 251 251 250 251 252 252 253 254 257 259 262 264 266 267 266 265 267 268 270 271 271 271 272 273 273
244 247 249 249 250 249 250 250 247 245 244 245 247 248 248 250 251 251 251 252 252 252 253 254 254 255 256 258 260 261 263 264 264 265 266 267 270 271 272 271 270 271 272 271
242 246 249 250 251 251 251 250 249 247 246 247 248 249 248 250 252 253 253 254 253 253 255 256 256 257 257 259 260 262 262 263 263 264 266 268 270 271 271 271 270 270 271 270
243 246 248 249 248 250 251 250 250 250 249 249 249 250 251 251 252 252 252 253 253 253 255 256 256 256 258 260 260 261 262 263 265 266 268 271 273 271 271 273 272 270 270 270
246 249 248 249 249 249 251 253 251 251 250 249 248 249 250 252 252 252 252 254 256 257 258 258 257 258 259 260 260 261 262 263 265 267 269 271 272 274 273 273 273 272 273 272
247 249 250 250 250 251 252 253 252 251 249 249 249 252 253 253 252 253 254 255 256 258 259 259 259 259 259 259 261 262 263 264 266 267 268 270 272 275 274 274 273 272 273 274
248 250 252 253 253 252 252 253 252 252 252 252 253 254 255 255 254 255 257 257 258 260 261 261 260 260 260 260 261 263 264 264 265 268 269 271 273 275 275 276 272 270 272 273
249 249 251 252 253 254 254 254 253 254 253 253 254 255 258 257 256 255 256 257 258 259 261 262 262 261 261 263 264 265 265 264 265 268 270 272 274 276 276 275 272 270 270 272
252 252 252 252 253 255 255 256 255 255 255 256 256 258 260 260 258 257 257 259 258 259 260 262 262 261 261 262 264 266 267 266 266 267 268 270 272 275 275 273 271 270 272 273
256 254 253 252 255 257 257 257 257 256 257 259 259 259 260 260 259 258 258 258 259 260 261 262 262 261 261 262 265 265 266 266 264 265 267 269 271 274 273 272 271 270 271 272
257 258 257 255 255 256 257 257 257 257 259 259 257 256 257 258 258 258 257 258 259 261 263 263 263 263 263 264 265 265 266 266 265 265 268 271 272 272 272 272 272 270 270 270
259 259 259 259 257 256 257 257 257 259 261 259 258 258 258 258 259 258 256 257 259 261 264 265 263 263 263 264 264 264 265 266 267 267 269 270 271 271 271 273 273 271 270 270
259 258 260 261 261 260 258 255 256 257 259 260 260 260 261 261 260 259 257 256 258 261 263 264 263 263 263 264 267 268 267 268 268 268 268 268 269 270 271 272 273 271 270 269
265 262 263 262 260 259 256 254 255 257 258 260 262 262 261 260 261 260 259 260 260 262 264 264 263 264 265 268 270 270 270 270 269 268 268 268 268 268 270 271 272 272 270 269
270 268 267 265 260 258 256 257 258 257 257 260 264 264 262 261 263 263 264 263 261 262 264 264 264 265 267 269 270 271 270 270 271 270 267 266 267 267 268 268 269 270 270 271
273 270 267 264 261 261 258 258 261 262 261 263 265 265 265 265 265 265 267 264 262 262 262 263 263 265 268 269 270 271 272 271 271 269 266 265 265 265 265 265 266 268 270 270
271 270 267 264 262 262 261 259 260 262 264 266 267 267 267 267 268 268 266 264 262 262 263 264 264 265 266 267 269 271 272 270 270 269 267 265 264 265 265 265 266 268 269 268
270 271 270 265 261 260 261 261 262 265 266 267 269 270 270 269 270 270 268 266 265 265 265 267 267 268 268 267 269 269 267 266 266 267 267 265 266 266 266 267 268 270 271 271
270 268 268 269 265 261 261 264 267 270 271 272 271 273 276 274 272 270 267 265 265 266 266 267 268 269 268 267 267 266 265 265 266 267 269 269 270 270 270 272 273 274 274 275
271 268 267 267 265 262 264 269 274 276 278 277 276 279 280 277 274 272 270 269 268 267 267 268 268 268 268 267 266 263 262 263 264 265 268 269 271 272 273 275 276 277 276 277
268 266 265 270 271 268 270 275 279 280 279 279 280 281 280 276 274 275 275 274 272 271 271 271 270 269 268 268 267 266 267 269 268 268 269 271 272 273 274 275 275 277 277 277